* Astronomy

Members Login
Post Info TOPIC: Asteroid 2010 KR59


L

Posts: 131433
Date:
Asteroid 2010 KR59
Permalink  
 


Orbital elements:
2010 KR59
Epoch 2010 July 23.0 TT = JDT 2455400.5 MPC
M 6.00357 (2000.0) P Q
n 0.00353422 Peri. 56.40768 -0.19888045 -0.94858726
a 42.6848152 Node 47.14602 +0.75044111 -0.30899618
e 0.7504186 Incl. 19.62598 +0.63030525 +0.06858260
P 279 H 7.7 G 0.15 U 5

MPEC 2010 - K66


__________________
Page 1 of 1  sorted by
 
Quick Reply

Please log in to post quick replies.



Create your own FREE Forum
Report Abuse
Powered by ActiveBoard